Location: ???? ????
(31.2831°N, 45.5190°E)
Time: 04:21:02
(UTC+00:00)

Timation 1 Rocket - Pass Details

Date: 24 February 2021
Orbit: 900 x 907 km, 70.0° (Epoch: 14 April)

Event Time Altitude Azimuth Distance (km) Brightness Sun altitude
Rises 15:32:11 0° 342° (NNW) 3,527 7.6 -9.2°
Reaches altitude 10° 15:34:43 10° 346° (NNW) 2,582 6.8 -9.8°
Maximum altitude 15:40:37 62° 67° (ENE) 1,009 4.3 -11.0°
Drops below altitude 10° 15:46:29 10° 148° (SSE) 2,566 6.4 -12.3°
Sets 15:49:00 0° 151° (SSE) 3,503 7.2 -12.8°
